Index of /20260422/WXO-DD/model_gdps/15km/00/090
Name Last modified Size Description
Parent Directory -
20260422T00Z_MSC_GDPS_AbsoluteVorticity_IsbL-0200_LatLon0.15_PT090H.grib2 2026-04-22 04:33 1.5M
20260422T00Z_MSC_GDPS_AbsoluteVorticity_IsbL-0250_LatLon0.15_PT090H.grib2 2026-04-22 04:33 1.3M
20260422T00Z_MSC_GDPS_AbsoluteVorticity_IsbL-0500_LatLon0.15_PT090H.grib2 2026-04-22 04:33 1.2M
20260422T00Z_MSC_GDPS_AbsoluteVorticity_IsbL-0700_LatLon0.15_PT090H.grib2 2026-04-22 04:33 1.6M
20260422T00Z_MSC_GDPS_AbsoluteVorticity_IsbL-0850_LatLon0.15_PT090H.grib2 2026-04-22 04:33 1.6M
20260422T00Z_MSC_GDPS_AirTemp-Max_AGL-2m_LatLon0.15_PT090H.grib2 2026-04-22 04:33 749K
20260422T00Z_MSC_GDPS_AirTemp-Min_AGL-2m_LatLon0.15_PT090H.grib2 2026-04-22 04:33 796K
20260422T00Z_MSC_GDPS_AirTemp_AGL-120m_LatLon0.15_PT090H.grib2 2026-04-22 04:33 915K
20260422T00Z_MSC_GDPS_AirTemp_AGL-2m_LatLon0.15_PT090H.grib2 2026-04-22 04:33 1.0M
20260422T00Z_MSC_GDPS_AirTemp_AGL-40m_LatLon0.15_PT090H.grib2 2026-04-22 04:33 820K
20260422T00Z_MSC_GDPS_AirTemp_AGL-80m_LatLon0.15_PT090H.grib2 2026-04-22 04:33 925K
20260422T00Z_MSC_GDPS_AirTemp_IsbL-0001_LatLon0.15_PT090H.grib2 2026-04-22 04:33 705K
20260422T00Z_MSC_GDPS_AirTemp_IsbL-0005_LatLon0.15_PT090H.grib2 2026-04-22 04:33 750K
20260422T00Z_MSC_GDPS_AirTemp_IsbL-0010_LatLon0.15_PT090H.grib2 2026-04-22 04:33 754K
20260422T00Z_MSC_GDPS_AirTemp_IsbL-0020_LatLon0.15_PT090H.grib2 2026-04-22 04:33 697K
20260422T00Z_MSC_GDPS_AirTemp_IsbL-0030_LatLon0.15_PT090H.grib2 2026-04-22 04:33 752K
20260422T00Z_MSC_GDPS_AirTemp_IsbL-0050_LatLon0.15_PT090H.grib2 2026-04-22 04:33 811K
20260422T00Z_MSC_GDPS_AirTemp_IsbL-0100_LatLon0.15_PT090H.grib2 2026-04-22 04:33 947K
20260422T00Z_MSC_GDPS_AirTemp_IsbL-0150_LatLon0.15_PT090H.grib2 2026-04-22 04:33 963K
20260422T00Z_MSC_GDPS_AirTemp_IsbL-0175_LatLon0.15_PT090H.grib2 2026-04-22 04:33 954K
20260422T00Z_MSC_GDPS_AirTemp_IsbL-0200_LatLon0.15_PT090H.grib2 2026-04-22 04:33 966K
20260422T00Z_MSC_GDPS_AirTemp_IsbL-0225_LatLon0.15_PT090H.grib2 2026-04-22 04:33 971K
20260422T00Z_MSC_GDPS_AirTemp_IsbL-0250_LatLon0.15_PT090H.grib2 2026-04-22 04:33 1.0M
20260422T00Z_MSC_GDPS_AirTemp_IsbL-0275_LatLon0.15_PT090H.grib2 2026-04-22 04:33 1.0M
20260422T00Z_MSC_GDPS_AirTemp_IsbL-0300_LatLon0.15_PT090H.grib2 2026-04-22 04:33 1.0M
20260422T00Z_MSC_GDPS_AirTemp_IsbL-0350_LatLon0.15_PT090H.grib2 2026-04-22 04:33 931K
20260422T00Z_MSC_GDPS_AirTemp_IsbL-0400_LatLon0.15_PT090H.grib2 2026-04-22 04:33 944K
20260422T00Z_MSC_GDPS_AirTemp_IsbL-0450_LatLon0.15_PT090H.grib2 2026-04-22 04:33 965K
20260422T00Z_MSC_GDPS_AirTemp_IsbL-0500_LatLon0.15_PT090H.grib2 2026-04-22 04:33 1.0M
20260422T00Z_MSC_GDPS_AirTemp_IsbL-0550_LatLon0.15_PT090H.grib2 2026-04-22 04:33 807K
20260422T00Z_MSC_GDPS_AirTemp_IsbL-0600_LatLon0.15_PT090H.grib2 2026-04-22 04:33 898K
20260422T00Z_MSC_GDPS_AirTemp_IsbL-0650_LatLon0.15_PT090H.grib2 2026-04-22 04:33 920K
20260422T00Z_MSC_GDPS_AirTemp_IsbL-0700_LatLon0.15_PT090H.grib2 2026-04-22 04:33 958K
20260422T00Z_MSC_GDPS_AirTemp_IsbL-0750_LatLon0.15_PT090H.grib2 2026-04-22 04:33 1.0M
20260422T00Z_MSC_GDPS_AirTemp_IsbL-0800_LatLon0.15_PT090H.grib2 2026-04-22 04:33 1.1M
20260422T00Z_MSC_GDPS_AirTemp_IsbL-0850_LatLon0.15_PT090H.grib2 2026-04-22 04:33 1.1M
20260422T00Z_MSC_GDPS_AirTemp_IsbL-0875_LatLon0.15_PT090H.grib2 2026-04-22 04:33 1.2M
20260422T00Z_MSC_GDPS_AirTemp_IsbL-0900_LatLon0.15_PT090H.grib2 2026-04-22 04:33 1.1M
20260422T00Z_MSC_GDPS_AirTemp_IsbL-0925_LatLon0.15_PT090H.grib2 2026-04-22 04:33 1.1M
20260422T00Z_MSC_GDPS_AirTemp_IsbL-0950_LatLon0.15_PT090H.grib2 2026-04-22 04:33 1.2M
20260422T00Z_MSC_GDPS_AirTemp_IsbL-0970_LatLon0.15_PT090H.grib2 2026-04-22 04:33 1.2M
20260422T00Z_MSC_GDPS_AirTemp_IsbL-0985_LatLon0.15_PT090H.grib2 2026-04-22 04:33 1.2M
20260422T00Z_MSC_GDPS_AirTemp_IsbL-1000_LatLon0.15_PT090H.grib2 2026-04-22 04:33 1.1M
20260422T00Z_MSC_GDPS_AirTemp_IsbL-1015_LatLon0.15_PT090H.grib2 2026-04-22 04:33 1.1M
20260422T00Z_MSC_GDPS_Albedo_Sfc_LatLon0.15_PT090H.grib2 2026-04-22 04:33 250K
20260422T00Z_MSC_GDPS_CAPE_Sfc_LatLon0.15_PT090H.grib2 2026-04-22 04:33 3.9M
20260422T00Z_MSC_GDPS_CIN_Sfc_LatLon0.15_PT090H.grib2 2026-04-22 04:33 2.8M
20260422T00Z_MSC_GDPS_CloudWater_EAtm_LatLon0.15_PT090H.grib2 2026-04-22 04:33 538K
20260422T00Z_MSC_GDPS_ConvectivePrecip-Accum_Sfc_LatLon0.15_PT090H.grib2 2026-04-22 04:33 3.2M
20260422T00Z_MSC_GDPS_DewPointDepression_AGL-2m_LatLon0.15_PT090H.grib2 2026-04-22 04:33 756K
20260422T00Z_MSC_GDPS_DewPointDepression_IsbL-0010_LatLon0.15_PT090H.grib2 2026-04-22 04:33 43K
20260422T00Z_MSC_GDPS_DewPointDepression_IsbL-0020_LatLon0.15_PT090H.grib2 2026-04-22 04:33 73K
20260422T00Z_MSC_GDPS_DewPointDepression_IsbL-0030_LatLon0.15_PT090H.grib2 2026-04-22 04:33 81K
20260422T00Z_MSC_GDPS_DewPointDepression_IsbL-0050_LatLon0.15_PT090H.grib2 2026-04-22 04:33 366K
20260422T00Z_MSC_GDPS_DewPointDepression_IsbL-0100_LatLon0.15_PT090H.grib2 2026-04-22 04:33 390K
20260422T00Z_MSC_GDPS_DewPointDepression_IsbL-0150_LatLon0.15_PT090H.grib2 2026-04-22 04:33 468K
20260422T00Z_MSC_GDPS_DewPointDepression_IsbL-0175_LatLon0.15_PT090H.grib2 2026-04-22 04:33 560K
20260422T00Z_MSC_GDPS_DewPointDepression_IsbL-0200_LatLon0.15_PT090H.grib2 2026-04-22 04:33 653K
20260422T00Z_MSC_GDPS_DewPointDepression_IsbL-0225_LatLon0.15_PT090H.grib2 2026-04-22 04:33 766K
20260422T00Z_MSC_GDPS_DewPointDepression_IsbL-0250_LatLon0.15_PT090H.grib2 2026-04-22 04:33 858K
20260422T00Z_MSC_GDPS_DewPointDepression_IsbL-0275_LatLon0.15_PT090H.grib2 2026-04-22 04:33 886K
20260422T00Z_MSC_GDPS_DewPointDepression_IsbL-0300_LatLon0.15_PT090H.grib2 2026-04-22 04:33 937K
20260422T00Z_MSC_GDPS_DewPointDepression_IsbL-0350_LatLon0.15_PT090H.grib2 2026-04-22 04:33 971K
20260422T00Z_MSC_GDPS_DewPointDepression_IsbL-0400_LatLon0.15_PT090H.grib2 2026-04-22 04:33 1.0M
20260422T00Z_MSC_GDPS_DewPointDepression_IsbL-0450_LatLon0.15_PT090H.grib2 2026-04-22 04:33 1.0M
20260422T00Z_MSC_GDPS_DewPointDepression_IsbL-0500_LatLon0.15_PT090H.grib2 2026-04-22 04:33 1.0M
20260422T00Z_MSC_GDPS_DewPointDepression_IsbL-0550_LatLon0.15_PT090H.grib2 2026-04-22 04:33 1.0M
20260422T00Z_MSC_GDPS_DewPointDepression_IsbL-0600_LatLon0.15_PT090H.grib2 2026-04-22 04:33 1.1M
20260422T00Z_MSC_GDPS_DewPointDepression_IsbL-0650_LatLon0.15_PT090H.grib2 2026-04-22 04:33 1.1M
20260422T00Z_MSC_GDPS_DewPointDepression_IsbL-0700_LatLon0.15_PT090H.grib2 2026-04-22 04:33 1.1M
20260422T00Z_MSC_GDPS_DewPointDepression_IsbL-0750_LatLon0.15_PT090H.grib2 2026-04-22 04:33 1.1M
20260422T00Z_MSC_GDPS_DewPointDepression_IsbL-0800_LatLon0.15_PT090H.grib2 2026-04-22 04:33 1.2M
20260422T00Z_MSC_GDPS_DewPointDepression_IsbL-0850_LatLon0.15_PT090H.grib2 2026-04-22 04:33 1.2M
20260422T00Z_MSC_GDPS_DewPointDepression_IsbL-0875_LatLon0.15_PT090H.grib2 2026-04-22 04:33 1.1M
20260422T00Z_MSC_GDPS_DewPointDepression_IsbL-0900_LatLon0.15_PT090H.grib2 2026-04-22 04:33 1.1M
20260422T00Z_MSC_GDPS_DewPointDepression_IsbL-0925_LatLon0.15_PT090H.grib2 2026-04-22 04:33 1.0M
20260422T00Z_MSC_GDPS_DewPointDepression_IsbL-0950_LatLon0.15_PT090H.grib2 2026-04-22 04:33 1.0M
20260422T00Z_MSC_GDPS_DewPointDepression_IsbL-0970_LatLon0.15_PT090H.grib2 2026-04-22 04:33 1.0M
20260422T00Z_MSC_GDPS_DewPointDepression_IsbL-0985_LatLon0.15_PT090H.grib2 2026-04-22 04:33 1.0M
20260422T00Z_MSC_GDPS_DewPointDepression_IsbL-1000_LatLon0.15_PT090H.grib2 2026-04-22 04:33 1.0M
20260422T00Z_MSC_GDPS_DewPointDepression_IsbL-1015_LatLon0.15_PT090H.grib2 2026-04-22 04:33 917K
20260422T00Z_MSC_GDPS_DewPoint_AGL-2m_LatLon0.15_PT090H.grib2 2026-04-22 04:33 613K
20260422T00Z_MSC_GDPS_DownwardLongwaveRadiationFlux-Accum_Sfc_LatLon0.15_PT090H.grib2 2026-04-22 04:33 707K
20260422T00Z_MSC_GDPS_DownwardShortwaveRadiationFlux-Accum_NTAtm_LatLon0.15_PT090H.grib2 2026-04-22 04:33 275K
20260422T00Z_MSC_GDPS_DownwardShortwaveRadiationFlux-Accum_Sfc_LatLon0.15_PT090H.grib2 2026-04-22 04:33 936K
20260422T00Z_MSC_GDPS_FreezingRain-Accum12h_Sfc_LatLon0.15_PT090H.grib2 2026-04-22 04:33 139K
20260422T00Z_MSC_GDPS_FreezingRain-Accum1h_Sfc_LatLon0.15_PT090H.grib2 2026-04-22 04:33 58K
20260422T00Z_MSC_GDPS_FreezingRain-Accum24h_Sfc_LatLon0.15_PT090H.grib2 2026-04-22 04:33 207K
20260422T00Z_MSC_GDPS_FreezingRain-Accum3h_Sfc_LatLon0.15_PT090H.grib2 2026-04-22 04:33 86K
20260422T00Z_MSC_GDPS_FreezingRain-Accum6h_Sfc_LatLon0.15_PT090H.grib2 2026-04-22 04:33 118K
20260422T00Z_MSC_GDPS_FreezingRain-Accum_Sfc_LatLon0.15_PT090H.grib2 2026-04-22 04:33 332K
20260422T00Z_MSC_GDPS_GeopotentialHeight_IsbL-0001_LatLon0.15_PT090H.grib2 2026-04-22 04:33 396K
20260422T00Z_MSC_GDPS_GeopotentialHeight_IsbL-0005_LatLon0.15_PT090H.grib2 2026-04-22 04:33 496K
20260422T00Z_MSC_GDPS_GeopotentialHeight_IsbL-0010_LatLon0.15_PT090H.grib2 2026-04-22 04:33 480K
20260422T00Z_MSC_GDPS_GeopotentialHeight_IsbL-0020_LatLon0.15_PT090H.grib2 2026-04-22 04:33 574K
20260422T00Z_MSC_GDPS_GeopotentialHeight_IsbL-0030_LatLon0.15_PT090H.grib2 2026-04-22 04:33 578K
20260422T00Z_MSC_GDPS_GeopotentialHeight_IsbL-0050_LatLon0.15_PT090H.grib2 2026-04-22 04:33 573K
20260422T00Z_MSC_GDPS_GeopotentialHeight_IsbL-0100_LatLon0.15_PT090H.grib2 2026-04-22 04:33 608K
20260422T00Z_MSC_GDPS_GeopotentialHeight_IsbL-0150_LatLon0.15_PT090H.grib2 2026-04-22 04:33 626K
20260422T00Z_MSC_GDPS_GeopotentialHeight_IsbL-0175_LatLon0.15_PT090H.grib2 2026-04-22 04:33 631K
20260422T00Z_MSC_GDPS_GeopotentialHeight_IsbL-0200_LatLon0.15_PT090H.grib2 2026-04-22 04:33 636K
20260422T00Z_MSC_GDPS_GeopotentialHeight_IsbL-0225_LatLon0.15_PT090H.grib2 2026-04-22 04:33 635K
20260422T00Z_MSC_GDPS_GeopotentialHeight_IsbL-0250_LatLon0.15_PT090H.grib2 2026-04-22 04:33 643K
20260422T00Z_MSC_GDPS_GeopotentialHeight_IsbL-0275_LatLon0.15_PT090H.grib2 2026-04-22 04:33 643K
20260422T00Z_MSC_GDPS_GeopotentialHeight_IsbL-0300_LatLon0.15_PT090H.grib2 2026-04-22 04:33 635K
20260422T00Z_MSC_GDPS_GeopotentialHeight_IsbL-0350_LatLon0.15_PT090H.grib2 2026-04-22 04:33 631K
20260422T00Z_MSC_GDPS_GeopotentialHeight_IsbL-0400_LatLon0.15_PT090H.grib2 2026-04-22 04:33 625K
20260422T00Z_MSC_GDPS_GeopotentialHeight_IsbL-0450_LatLon0.15_PT090H.grib2 2026-04-22 04:33 546K
20260422T00Z_MSC_GDPS_GeopotentialHeight_IsbL-0500_LatLon0.15_PT090H.grib2 2026-04-22 04:33 535K
20260422T00Z_MSC_GDPS_GeopotentialHeight_IsbL-0550_LatLon0.15_PT090H.grib2 2026-04-22 04:33 697K
20260422T00Z_MSC_GDPS_GeopotentialHeight_IsbL-0600_LatLon0.15_PT090H.grib2 2026-04-22 04:33 688K
20260422T00Z_MSC_GDPS_GeopotentialHeight_IsbL-0650_LatLon0.15_PT090H.grib2 2026-04-22 04:33 687K
20260422T00Z_MSC_GDPS_GeopotentialHeight_IsbL-0700_LatLon0.15_PT090H.grib2 2026-04-22 04:33 687K
20260422T00Z_MSC_GDPS_GeopotentialHeight_IsbL-0750_LatLon0.15_PT090H.grib2 2026-04-22 04:33 690K
20260422T00Z_MSC_GDPS_GeopotentialHeight_IsbL-0800_LatLon0.15_PT090H.grib2 2026-04-22 04:33 700K
20260422T00Z_MSC_GDPS_GeopotentialHeight_IsbL-0850_LatLon0.15_PT090H.grib2 2026-04-22 04:33 706K
20260422T00Z_MSC_GDPS_GeopotentialHeight_IsbL-0875_LatLon0.15_PT090H.grib2 2026-04-22 04:33 713K
20260422T00Z_MSC_GDPS_GeopotentialHeight_IsbL-0900_LatLon0.15_PT090H.grib2 2026-04-22 04:33 721K
20260422T00Z_MSC_GDPS_GeopotentialHeight_IsbL-0925_LatLon0.15_PT090H.grib2 2026-04-22 04:33 726K
20260422T00Z_MSC_GDPS_GeopotentialHeight_IsbL-0950_LatLon0.15_PT090H.grib2 2026-04-22 04:33 731K
20260422T00Z_MSC_GDPS_GeopotentialHeight_IsbL-0970_LatLon0.15_PT090H.grib2 2026-04-22 04:33 745K
20260422T00Z_MSC_GDPS_GeopotentialHeight_IsbL-0985_LatLon0.15_PT090H.grib2 2026-04-22 04:33 762K
20260422T00Z_MSC_GDPS_GeopotentialHeight_IsbL-1000_LatLon0.15_PT090H.grib2 2026-04-22 04:33 786K
20260422T00Z_MSC_GDPS_GeopotentialHeight_IsbL-1015_LatLon0.15_PT090H.grib2 2026-04-22 04:33 808K
20260422T00Z_MSC_GDPS_Humidex_Sfc_LatLon0.15_PT090H.grib2 2026-04-22 04:33 5.3M
20260422T00Z_MSC_GDPS_IcePellets-Accum12h_Sfc_LatLon0.15_PT090H.grib2 2026-04-22 04:33 38K
20260422T00Z_MSC_GDPS_IcePellets-Accum1h_Sfc_LatLon0.15_PT090H.grib2 2026-04-22 04:33 24K
20260422T00Z_MSC_GDPS_IcePellets-Accum24h_Sfc_LatLon0.15_PT090H.grib2 2026-04-22 04:33 56K
20260422T00Z_MSC_GDPS_IcePellets-Accum3h_Sfc_LatLon0.15_PT090H.grib2 2026-04-22 04:33 27K
20260422T00Z_MSC_GDPS_IcePellets-Accum6h_Sfc_LatLon0.15_PT090H.grib2 2026-04-22 04:33 31K
20260422T00Z_MSC_GDPS_IcePellets-Accum_Sfc_LatLon0.15_PT090H.grib2 2026-04-22 04:33 119K
20260422T00Z_MSC_GDPS_KIndex_Sfc_LatLon0.15_PT090H.grib2 2026-04-22 04:33 6.5M
20260422T00Z_MSC_GDPS_LatentHeatNetFlux_Sfc_LatLon0.15_PT090H.grib2 2026-04-22 04:33 517K
20260422T00Z_MSC_GDPS_LiftedIndex-MU-VT_IsbL-0500_LatLon0.15_PT090H.grib2 2026-04-22 04:33 5.4M
20260422T00Z_MSC_GDPS_NetLongwaveRadiationFlux-Accum_Sfc_LatLon0.15_PT090H.grib2 2026-04-22 04:33 1.0M
20260422T00Z_MSC_GDPS_NetShortwaveRadiationFlux-Accum_Sfc_LatLon0.15_PT090H.grib2 2026-04-22 04:33 926K
20260422T00Z_MSC_GDPS_O3MixingRatio_LatLon0.15_PT090H.grib2 2026-04-22 04:59 2.3M
20260422T00Z_MSC_GDPS_O3_EAtm_LatLon0.15_PT090H.grib2 2026-04-22 04:59 2.5M
20260422T00Z_MSC_GDPS_PlanetaryBoundaryLayerHeight_Sfc_LatLon0.15_PT090H.grib2 2026-04-22 04:33 2.4M
20260422T00Z_MSC_GDPS_Precip-Accum12h_Sfc_LatLon0.15_PT090H.grib2 2026-04-22 04:33 4.4M
20260422T00Z_MSC_GDPS_Precip-Accum1h_Sfc_LatLon0.15_PT090H.grib2 2026-04-22 04:33 3.3M
20260422T00Z_MSC_GDPS_Precip-Accum24h_Sfc_LatLon0.15_PT090H.grib2 2026-04-22 04:33 4.6M
20260422T00Z_MSC_GDPS_Precip-Accum3h_Sfc_LatLon0.15_PT090H.grib2 2026-04-22 04:33 3.6M
20260422T00Z_MSC_GDPS_Precip-Accum6h_Sfc_LatLon0.15_PT090H.grib2 2026-04-22 04:33 3.9M
20260422T00Z_MSC_GDPS_Precip-Accum_Sfc_LatLon0.15_PT090H.grib2 2026-04-22 04:33 5.0M
20260422T00Z_MSC_GDPS_PrecipRate_Sfc_LatLon0.15_PT090H.grib2 2026-04-22 04:33 3.0M
20260422T00Z_MSC_GDPS_PrecipType-Instant_Sfc_LatLon0.15_PT090H.grib2 2026-04-22 04:33 1.6M
20260422T00Z_MSC_GDPS_Pressure_MSL_LatLon0.15_PT090H.grib2 2026-04-22 04:33 724K
20260422T00Z_MSC_GDPS_Pressure_PVU-1.5_LatLon0.15_PT090H.grib2 2026-04-22 04:33 5.8M
20260422T00Z_MSC_GDPS_Pressure_PVU-1_LatLon0.15_PT090H.grib2 2026-04-22 04:33 6.0M
20260422T00Z_MSC_GDPS_Pressure_PVU-2_LatLon0.15_PT090H.grib2 2026-04-22 04:33 5.6M
20260422T00Z_MSC_GDPS_Pressure_Sfc_LatLon0.15_PT090H.grib2 2026-04-22 04:33 1.1M
20260422T00Z_MSC_GDPS_RadiativeTemp_Sfc_LatLon0.15_PT090H.grib2 2026-04-22 04:33 668K
20260422T00Z_MSC_GDPS_Rain-Accum12h_Sfc_LatLon0.15_PT090H.grib2 2026-04-22 04:33 2.9M
20260422T00Z_MSC_GDPS_Rain-Accum1h_Sfc_LatLon0.15_PT090H.grib2 2026-04-22 04:33 1.6M
20260422T00Z_MSC_GDPS_Rain-Accum24h_Sfc_LatLon0.15_PT090H.grib2 2026-04-22 04:33 3.1M
20260422T00Z_MSC_GDPS_Rain-Accum3h_Sfc_LatLon0.15_PT090H.grib2 2026-04-22 04:33 1.7M
20260422T00Z_MSC_GDPS_Rain-Accum6h_Sfc_LatLon0.15_PT090H.grib2 2026-04-22 04:33 2.5M
20260422T00Z_MSC_GDPS_Rain-Accum_Sfc_LatLon0.15_PT090H.grib2 2026-04-22 04:33 4.0M
20260422T00Z_MSC_GDPS_RelativeHumidity_AGL-2m_LatLon0.15_PT090H.grib2 2026-04-22 04:33 1.0M
20260422T00Z_MSC_GDPS_RelativeHumidity_IsbL-0010_LatLon0.15_PT090H.grib2 2026-04-22 04:33 257K
20260422T00Z_MSC_GDPS_RelativeHumidity_IsbL-0020_LatLon0.15_PT090H.grib2 2026-04-22 04:33 266K
20260422T00Z_MSC_GDPS_RelativeHumidity_IsbL-0030_LatLon0.15_PT090H.grib2 2026-04-22 04:33 420K
20260422T00Z_MSC_GDPS_RelativeHumidity_IsbL-0050_LatLon0.15_PT090H.grib2 2026-04-22 04:33 333K
20260422T00Z_MSC_GDPS_RelativeHumidity_IsbL-0100_LatLon0.15_PT090H.grib2 2026-04-22 04:33 490K
20260422T00Z_MSC_GDPS_RelativeHumidity_IsbL-0150_LatLon0.15_PT090H.grib2 2026-04-22 04:33 648K
20260422T00Z_MSC_GDPS_RelativeHumidity_IsbL-0175_LatLon0.15_PT090H.grib2 2026-04-22 04:33 782K
20260422T00Z_MSC_GDPS_RelativeHumidity_IsbL-0200_LatLon0.15_PT090H.grib2 2026-04-22 04:33 694K
20260422T00Z_MSC_GDPS_RelativeHumidity_IsbL-0225_LatLon0.15_PT090H.grib2 2026-04-22 04:33 781K
20260422T00Z_MSC_GDPS_RelativeHumidity_IsbL-0250_LatLon0.15_PT090H.grib2 2026-04-22 04:33 863K
20260422T00Z_MSC_GDPS_RelativeHumidity_IsbL-0275_LatLon0.15_PT090H.grib2 2026-04-22 04:33 890K
20260422T00Z_MSC_GDPS_RelativeHumidity_IsbL-0300_LatLon0.15_PT090H.grib2 2026-04-22 04:33 941K
20260422T00Z_MSC_GDPS_RelativeHumidity_IsbL-0350_LatLon0.15_PT090H.grib2 2026-04-22 04:33 967K
20260422T00Z_MSC_GDPS_RelativeHumidity_IsbL-0400_LatLon0.15_PT090H.grib2 2026-04-22 04:33 1.0M
20260422T00Z_MSC_GDPS_RelativeHumidity_IsbL-0450_LatLon0.15_PT090H.grib2 2026-04-22 04:33 1.0M
20260422T00Z_MSC_GDPS_RelativeHumidity_IsbL-0500_LatLon0.15_PT090H.grib2 2026-04-22 04:33 1.0M
20260422T00Z_MSC_GDPS_RelativeHumidity_IsbL-0550_LatLon0.15_PT090H.grib2 2026-04-22 04:33 1.1M
20260422T00Z_MSC_GDPS_RelativeHumidity_IsbL-0600_LatLon0.15_PT090H.grib2 2026-04-22 04:33 1.1M
20260422T00Z_MSC_GDPS_RelativeHumidity_IsbL-0650_LatLon0.15_PT090H.grib2 2026-04-22 04:33 1.1M
20260422T00Z_MSC_GDPS_RelativeHumidity_IsbL-0700_LatLon0.15_PT090H.grib2 2026-04-22 04:33 1.1M
20260422T00Z_MSC_GDPS_RelativeHumidity_IsbL-0750_LatLon0.15_PT090H.grib2 2026-04-22 04:33 1.1M
20260422T00Z_MSC_GDPS_RelativeHumidity_IsbL-0800_LatLon0.15_PT090H.grib2 2026-04-22 04:33 1.2M
20260422T00Z_MSC_GDPS_RelativeHumidity_IsbL-0850_LatLon0.15_PT090H.grib2 2026-04-22 04:33 1.3M
20260422T00Z_MSC_GDPS_RelativeHumidity_IsbL-0875_LatLon0.15_PT090H.grib2 2026-04-22 04:33 1.3M
20260422T00Z_MSC_GDPS_RelativeHumidity_IsbL-0900_LatLon0.15_PT090H.grib2 2026-04-22 04:33 1.2M
20260422T00Z_MSC_GDPS_RelativeHumidity_IsbL-0925_LatLon0.15_PT090H.grib2 2026-04-22 04:33 1.2M
20260422T00Z_MSC_GDPS_RelativeHumidity_IsbL-0950_LatLon0.15_PT090H.grib2 2026-04-22 04:33 1.2M
20260422T00Z_MSC_GDPS_RelativeHumidity_IsbL-0970_LatLon0.15_PT090H.grib2 2026-04-22 04:33 1.2M
20260422T00Z_MSC_GDPS_RelativeHumidity_IsbL-0985_LatLon0.15_PT090H.grib2 2026-04-22 04:33 1.2M
20260422T00Z_MSC_GDPS_RelativeHumidity_IsbL-1000_LatLon0.15_PT090H.grib2 2026-04-22 04:33 1.2M
20260422T00Z_MSC_GDPS_RelativeHumidity_IsbL-1015_LatLon0.15_PT090H.grib2 2026-04-22 04:33 1.1M
20260422T00Z_MSC_GDPS_RelativeVorticity_IsbL-0200_LatLon0.15_PT090H.grib2 2026-04-22 04:33 1.5M
20260422T00Z_MSC_GDPS_RelativeVorticity_IsbL-0250_LatLon0.15_PT090H.grib2 2026-04-22 04:33 1.3M
20260422T00Z_MSC_GDPS_RelativeVorticity_IsbL-0500_LatLon0.15_PT090H.grib2 2026-04-22 04:33 1.2M
20260422T00Z_MSC_GDPS_RelativeVorticity_IsbL-0700_LatLon0.15_PT090H.grib2 2026-04-22 04:33 1.6M
20260422T00Z_MSC_GDPS_RelativeVorticity_IsbL-0850_LatLon0.15_PT090H.grib2 2026-04-22 04:33 1.6M
20260422T00Z_MSC_GDPS_Runoff-Accum_Sfc_LatLon0.15_PT090H.grib2 2026-04-22 04:33 109K
20260422T00Z_MSC_GDPS_SensibleHeatNetFlux_Sfc_LatLon0.15_PT090H.grib2 2026-04-22 04:33 627K
20260422T00Z_MSC_GDPS_ShowalterIndex_IsbL-0500_LatLon0.15_PT090H.grib2 2026-04-22 04:33 6.2M
20260422T00Z_MSC_GDPS_Snow-Accum12h_Sfc_LatLon0.15_PT090H.grib2 2026-04-22 04:33 1.5M
20260422T00Z_MSC_GDPS_Snow-Accum1h_Sfc_LatLon0.15_PT090H.grib2 2026-04-22 04:33 1.3M
20260422T00Z_MSC_GDPS_Snow-Accum24h_Sfc_LatLon0.15_PT090H.grib2 2026-04-22 04:33 1.6M
20260422T00Z_MSC_GDPS_Snow-Accum3h_Sfc_LatLon0.15_PT090H.grib2 2026-04-22 04:33 1.1M
20260422T00Z_MSC_GDPS_Snow-Accum6h_Sfc_LatLon0.15_PT090H.grib2 2026-04-22 04:33 1.5M
20260422T00Z_MSC_GDPS_Snow-Accum_Sfc_LatLon0.15_PT090H.grib2 2026-04-22 04:33 1.9M
20260422T00Z_MSC_GDPS_SnowDensity_Sfc_LatLon0.15_PT090H.grib2 2026-04-22 04:33 269K
20260422T00Z_MSC_GDPS_SnowDepth_Sfc_LatLon0.15_PT090H.grib2 2026-04-22 04:33 1.8M
20260422T00Z_MSC_GDPS_SoilTemp_DBS-0to10cm_LatLon0.15_PT090H.grib2 2026-04-22 04:33 509K
20260422T00Z_MSC_GDPS_SoilTemp_Sfc_LatLon0.15_PT090H.grib2 2026-04-22 04:33 582K
20260422T00Z_MSC_GDPS_SoilVolumetricIceContent_Sfc_LatLon0.15_PT090H.grib2 2026-04-22 04:33 215K
20260422T00Z_MSC_GDPS_SoilVolumetricWaterContent_DBS-0to10cm_LatLon0.15_PT090H.grib2 2026-04-22 04:33 563K
20260422T00Z_MSC_GDPS_SoilVolumetricWaterContent_DBS-0to1cm_LatLon0.15_PT090H.grib2 2026-04-22 04:33 653K
20260422T00Z_MSC_GDPS_SpecificHumidity_AGL-120m_LatLon0.15_PT090H.grib2 2026-04-22 04:33 1.1M
20260422T00Z_MSC_GDPS_SpecificHumidity_AGL-2m_LatLon0.15_PT090H.grib2 2026-04-22 04:33 1.2M
20260422T00Z_MSC_GDPS_SpecificHumidity_AGL-40m_LatLon0.15_PT090H.grib2 2026-04-22 04:33 1.1M
20260422T00Z_MSC_GDPS_SpecificHumidity_AGL-80m_LatLon0.15_PT090H.grib2 2026-04-22 04:33 1.1M
20260422T00Z_MSC_GDPS_SpecificHumidity_IsbL-0001_LatLon0.15_PT090H.grib2 2026-04-22 04:33 1.2M
20260422T00Z_MSC_GDPS_SpecificHumidity_IsbL-0005_LatLon0.15_PT090H.grib2 2026-04-22 04:33 1.4M
20260422T00Z_MSC_GDPS_SpecificHumidity_IsbL-0010_LatLon0.15_PT090H.grib2 2026-04-22 04:33 1.3M
20260422T00Z_MSC_GDPS_SpecificHumidity_IsbL-0020_LatLon0.15_PT090H.grib2 2026-04-22 04:33 1.3M
20260422T00Z_MSC_GDPS_SpecificHumidity_IsbL-0030_LatLon0.15_PT090H.grib2 2026-04-22 04:33 1.6M
20260422T00Z_MSC_GDPS_SpecificHumidity_IsbL-0050_LatLon0.15_PT090H.grib2 2026-04-22 04:33 1.3M
20260422T00Z_MSC_GDPS_SpecificHumidity_IsbL-0100_LatLon0.15_PT090H.grib2 2026-04-22 04:33 1.3M
20260422T00Z_MSC_GDPS_SpecificHumidity_IsbL-0150_LatLon0.15_PT090H.grib2 2026-04-22 04:33 1.0M
20260422T00Z_MSC_GDPS_SpecificHumidity_IsbL-0175_LatLon0.15_PT090H.grib2 2026-04-22 04:33 1.3M
20260422T00Z_MSC_GDPS_SpecificHumidity_IsbL-0200_LatLon0.15_PT090H.grib2 2026-04-22 04:33 1.3M
20260422T00Z_MSC_GDPS_SpecificHumidity_IsbL-0225_LatLon0.15_PT090H.grib2 2026-04-22 04:33 1.3M
20260422T00Z_MSC_GDPS_SpecificHumidity_IsbL-0250_LatLon0.15_PT090H.grib2 2026-04-22 04:33 1.4M
20260422T00Z_MSC_GDPS_SpecificHumidity_IsbL-0275_LatLon0.15_PT090H.grib2 2026-04-22 04:33 1.3M
20260422T00Z_MSC_GDPS_SpecificHumidity_IsbL-0300_LatLon0.15_PT090H.grib2 2026-04-22 04:33 1.2M
20260422T00Z_MSC_GDPS_SpecificHumidity_IsbL-0350_LatLon0.15_PT090H.grib2 2026-04-22 04:33 1.2M
20260422T00Z_MSC_GDPS_SpecificHumidity_IsbL-0400_LatLon0.15_PT090H.grib2 2026-04-22 04:33 1.5M
20260422T00Z_MSC_GDPS_SpecificHumidity_IsbL-0450_LatLon0.15_PT090H.grib2 2026-04-22 04:33 1.3M
20260422T00Z_MSC_GDPS_SpecificHumidity_IsbL-0500_LatLon0.15_PT090H.grib2 2026-04-22 04:33 1.4M
20260422T00Z_MSC_GDPS_SpecificHumidity_IsbL-0550_LatLon0.15_PT090H.grib2 2026-04-22 04:33 1.6M
20260422T00Z_MSC_GDPS_SpecificHumidity_IsbL-0600_LatLon0.15_PT090H.grib2 2026-04-22 04:33 1.7M
20260422T00Z_MSC_GDPS_SpecificHumidity_IsbL-0650_LatLon0.15_PT090H.grib2 2026-04-22 04:33 1.5M
20260422T00Z_MSC_GDPS_SpecificHumidity_IsbL-0700_LatLon0.15_PT090H.grib2 2026-04-22 04:33 1.6M
20260422T00Z_MSC_GDPS_SpecificHumidity_IsbL-0750_LatLon0.15_PT090H.grib2 2026-04-22 04:33 1.7M
20260422T00Z_MSC_GDPS_SpecificHumidity_IsbL-0800_LatLon0.15_PT090H.grib2 2026-04-22 04:33 1.9M
20260422T00Z_MSC_GDPS_SpecificHumidity_IsbL-0850_LatLon0.15_PT090H.grib2 2026-04-22 04:33 1.9M
20260422T00Z_MSC_GDPS_SpecificHumidity_IsbL-0875_LatLon0.15_PT090H.grib2 2026-04-22 04:33 1.9M
20260422T00Z_MSC_GDPS_SpecificHumidity_IsbL-0900_LatLon0.15_PT090H.grib2 2026-04-22 04:33 1.9M
20260422T00Z_MSC_GDPS_SpecificHumidity_IsbL-0925_LatLon0.15_PT090H.grib2 2026-04-22 04:33 1.9M
20260422T00Z_MSC_GDPS_SpecificHumidity_IsbL-0950_LatLon0.15_PT090H.grib2 2026-04-22 04:33 1.6M
20260422T00Z_MSC_GDPS_SpecificHumidity_IsbL-0970_LatLon0.15_PT090H.grib2 2026-04-22 04:33 1.5M
20260422T00Z_MSC_GDPS_SpecificHumidity_IsbL-0985_LatLon0.15_PT090H.grib2 2026-04-22 04:33 1.5M
20260422T00Z_MSC_GDPS_SpecificHumidity_IsbL-1000_LatLon0.15_PT090H.grib2 2026-04-22 04:33 1.5M
20260422T00Z_MSC_GDPS_SpecificHumidity_IsbL-1015_LatLon0.15_PT090H.grib2 2026-04-22 04:33 1.4M
20260422T00Z_MSC_GDPS_SpecificHumidity_Sfc_LatLon0.15_PT090H.grib2 2026-04-22 04:33 670K
20260422T00Z_MSC_GDPS_Thickness_IsbL-0850to0700_LatLon0.15_PT090H.grib2 2026-04-22 04:33 465K
20260422T00Z_MSC_GDPS_Thickness_IsbL-1000to0500_LatLon0.15_PT090H.grib2 2026-04-22 04:33 370K
20260422T00Z_MSC_GDPS_Thickness_IsbL-1000to0850_LatLon0.15_PT090H.grib2 2026-04-22 04:33 490K
20260422T00Z_MSC_GDPS_TotalCloudCover_Sfc_LatLon0.15_PT090H.grib2 2026-04-22 04:33 846K
20260422T00Z_MSC_GDPS_TotalTotalsIndex_Sfc_LatLon0.15_PT090H.grib2 2026-04-22 04:33 6.2M
20260422T00Z_MSC_GDPS_UVIndex-ClearSky-Max24h_Sfc_LatLon0.15_PT090H.grib2 2026-04-22 04:59 2.2M
20260422T00Z_MSC_GDPS_UVIndex-ClearSky_Sfc_LatLon0.15_PT090H.grib2 2026-04-22 04:59 1.0M
20260422T00Z_MSC_GDPS_UVIndex-Max24h_Sfc_LatLon0.15_PT090H.grib2 2026-04-22 04:59 3.2M
20260422T00Z_MSC_GDPS_UVIndex_Sfc_LatLon0.15_PT090H.grib2 2026-04-22 04:59 1.5M
20260422T00Z_MSC_GDPS_UpwardLongwaveRadiationFlux_NTAtm_LatLon0.15_PT090H.grib2 2026-04-22 04:33 845K
20260422T00Z_MSC_GDPS_VerticalVelocity_IsbL-0200_LatLon0.15_PT090H.grib2 2026-04-22 04:33 931K
20260422T00Z_MSC_GDPS_VerticalVelocity_IsbL-0250_LatLon0.15_PT090H.grib2 2026-04-22 04:33 1.1M
20260422T00Z_MSC_GDPS_VerticalVelocity_IsbL-0500_LatLon0.15_PT090H.grib2 2026-04-22 04:33 1.0M
20260422T00Z_MSC_GDPS_VerticalVelocity_IsbL-0600_LatLon0.15_PT090H.grib2 2026-04-22 04:33 1.1M
20260422T00Z_MSC_GDPS_VerticalVelocity_IsbL-0700_LatLon0.15_PT090H.grib2 2026-04-22 04:33 1.4M
20260422T00Z_MSC_GDPS_VerticalVelocity_IsbL-0850_LatLon0.15_PT090H.grib2 2026-04-22 04:33 1.6M
20260422T00Z_MSC_GDPS_WindChill_Sfc_LatLon0.15_PT090H.grib2 2026-04-22 04:33 5.3M
20260422T00Z_MSC_GDPS_WindDir_AGL-10m_LatLon0.15_PT090H.grib2 2026-04-22 04:33 1.3M
20260422T00Z_MSC_GDPS_WindDir_AGL-120m_LatLon0.15_PT090H.grib2 2026-04-22 04:33 1.4M
20260422T00Z_MSC_GDPS_WindDir_AGL-40m_LatLon0.15_PT090H.grib2 2026-04-22 04:33 1.4M
20260422T00Z_MSC_GDPS_WindDir_AGL-80m_LatLon0.15_PT090H.grib2 2026-04-22 04:33 1.4M
20260422T00Z_MSC_GDPS_WindDir_IsbL-0001_LatLon0.15_PT090H.grib2 2026-04-22 04:33 654K
20260422T00Z_MSC_GDPS_WindDir_IsbL-0005_LatLon0.15_PT090H.grib2 2026-04-22 04:33 798K
20260422T00Z_MSC_GDPS_WindDir_IsbL-0010_LatLon0.15_PT090H.grib2 2026-04-22 04:33 857K
20260422T00Z_MSC_GDPS_WindDir_IsbL-0020_LatLon0.15_PT090H.grib2 2026-04-22 04:33 950K
20260422T00Z_MSC_GDPS_WindDir_IsbL-0030_LatLon0.15_PT090H.grib2 2026-04-22 04:33 919K
20260422T00Z_MSC_GDPS_WindDir_IsbL-0050_LatLon0.15_PT090H.grib2 2026-04-22 04:33 955K
20260422T00Z_MSC_GDPS_WindDir_IsbL-0100_LatLon0.15_PT090H.grib2 2026-04-22 04:33 1.0M
20260422T00Z_MSC_GDPS_WindDir_IsbL-0150_LatLon0.15_PT090H.grib2 2026-04-22 04:33 1.0M
20260422T00Z_MSC_GDPS_WindDir_IsbL-0175_LatLon0.15_PT090H.grib2 2026-04-22 04:33 1.0M
20260422T00Z_MSC_GDPS_WindDir_IsbL-0200_LatLon0.15_PT090H.grib2 2026-04-22 04:33 1.1M
20260422T00Z_MSC_GDPS_WindDir_IsbL-0225_LatLon0.15_PT090H.grib2 2026-04-22 04:33 1.1M
20260422T00Z_MSC_GDPS_WindDir_IsbL-0250_LatLon0.15_PT090H.grib2 2026-04-22 04:33 1.1M
20260422T00Z_MSC_GDPS_WindDir_IsbL-0275_LatLon0.15_PT090H.grib2 2026-04-22 04:33 1.2M
20260422T00Z_MSC_GDPS_WindDir_IsbL-0300_LatLon0.15_PT090H.grib2 2026-04-22 04:33 1.2M
20260422T00Z_MSC_GDPS_WindDir_IsbL-0350_LatLon0.15_PT090H.grib2 2026-04-22 04:33 1.2M
20260422T00Z_MSC_GDPS_WindDir_IsbL-0400_LatLon0.15_PT090H.grib2 2026-04-22 04:33 1.3M
20260422T00Z_MSC_GDPS_WindDir_IsbL-0450_LatLon0.15_PT090H.grib2 2026-04-22 04:33 1.3M
20260422T00Z_MSC_GDPS_WindDir_IsbL-0500_LatLon0.15_PT090H.grib2 2026-04-22 04:33 1.4M
20260422T00Z_MSC_GDPS_WindDir_IsbL-0550_LatLon0.15_PT090H.grib2 2026-04-22 04:33 1.4M
20260422T00Z_MSC_GDPS_WindDir_IsbL-0600_LatLon0.15_PT090H.grib2 2026-04-22 04:33 1.5M
20260422T00Z_MSC_GDPS_WindDir_IsbL-0650_LatLon0.15_PT090H.grib2 2026-04-22 04:33 1.6M
20260422T00Z_MSC_GDPS_WindDir_IsbL-0700_LatLon0.15_PT090H.grib2 2026-04-22 04:33 1.6M
20260422T00Z_MSC_GDPS_WindDir_IsbL-0750_LatLon0.15_PT090H.grib2 2026-04-22 04:33 1.7M
20260422T00Z_MSC_GDPS_WindDir_IsbL-0800_LatLon0.15_PT090H.grib2 2026-04-22 04:33 1.8M
20260422T00Z_MSC_GDPS_WindDir_IsbL-0850_LatLon0.15_PT090H.grib2 2026-04-22 04:33 1.9M
20260422T00Z_MSC_GDPS_WindDir_IsbL-0875_LatLon0.15_PT090H.grib2 2026-04-22 04:33 2.0M
20260422T00Z_MSC_GDPS_WindDir_IsbL-0900_LatLon0.15_PT090H.grib2 2026-04-22 04:33 2.0M
20260422T00Z_MSC_GDPS_WindDir_IsbL-0925_LatLon0.15_PT090H.grib2 2026-04-22 04:33 2.0M
20260422T00Z_MSC_GDPS_WindDir_IsbL-0950_LatLon0.15_PT090H.grib2 2026-04-22 04:33 2.0M
20260422T00Z_MSC_GDPS_WindDir_IsbL-0970_LatLon0.15_PT090H.grib2 2026-04-22 04:33 2.0M
20260422T00Z_MSC_GDPS_WindDir_IsbL-0985_LatLon0.15_PT090H.grib2 2026-04-22 04:33 2.0M
20260422T00Z_MSC_GDPS_WindDir_IsbL-1000_LatLon0.15_PT090H.grib2 2026-04-22 04:33 2.1M
20260422T00Z_MSC_GDPS_WindDir_IsbL-1015_LatLon0.15_PT090H.grib2 2026-04-22 04:33 2.1M
20260422T00Z_MSC_GDPS_WindGust-Max_AGL-10m_LatLon0.15_PT090H.grib2 2026-04-22 04:33 2.2M
20260422T00Z_MSC_GDPS_WindGust-Min_AGL-10m_LatLon0.15_PT090H.grib2 2026-04-22 04:33 2.1M
20260422T00Z_MSC_GDPS_WindGust_AGL-10m_LatLon0.15_PT090H.grib2 2026-04-22 04:33 2.1M
20260422T00Z_MSC_GDPS_WindSpeed_AGL-10m_LatLon0.15_PT090H.grib2 2026-04-22 04:33 1.1M
20260422T00Z_MSC_GDPS_WindSpeed_AGL-120m_LatLon0.15_PT090H.grib2 2026-04-22 04:33 1.3M
20260422T00Z_MSC_GDPS_WindSpeed_AGL-40m_LatLon0.15_PT090H.grib2 2026-04-22 04:33 1.3M
20260422T00Z_MSC_GDPS_WindSpeed_AGL-80m_LatLon0.15_PT090H.grib2 2026-04-22 04:33 1.3M
20260422T00Z_MSC_GDPS_WindSpeed_IsbL-0001_LatLon0.15_PT090H.grib2 2026-04-22 04:33 636K
20260422T00Z_MSC_GDPS_WindSpeed_IsbL-0005_LatLon0.15_PT090H.grib2 2026-04-22 04:33 607K
20260422T00Z_MSC_GDPS_WindSpeed_IsbL-0010_LatLon0.15_PT090H.grib2 2026-04-22 04:33 624K
20260422T00Z_MSC_GDPS_WindSpeed_IsbL-0020_LatLon0.15_PT090H.grib2 2026-04-22 04:33 856K
20260422T00Z_MSC_GDPS_WindSpeed_IsbL-0030_LatLon0.15_PT090H.grib2 2026-04-22 04:33 854K
20260422T00Z_MSC_GDPS_WindSpeed_IsbL-0050_LatLon0.15_PT090H.grib2 2026-04-22 04:33 1.0M
20260422T00Z_MSC_GDPS_WindSpeed_IsbL-0100_LatLon0.15_PT090H.grib2 2026-04-22 04:33 1.1M
20260422T00Z_MSC_GDPS_WindSpeed_IsbL-0150_LatLon0.15_PT090H.grib2 2026-04-22 04:33 1.0M
20260422T00Z_MSC_GDPS_WindSpeed_IsbL-0175_LatLon0.15_PT090H.grib2 2026-04-22 04:33 1.0M
20260422T00Z_MSC_GDPS_WindSpeed_IsbL-0200_LatLon0.15_PT090H.grib2 2026-04-22 04:33 1.1M
20260422T00Z_MSC_GDPS_WindSpeed_IsbL-0225_LatLon0.15_PT090H.grib2 2026-04-22 04:33 1.1M
20260422T00Z_MSC_GDPS_WindSpeed_IsbL-0250_LatLon0.15_PT090H.grib2 2026-04-22 04:33 1.1M
20260422T00Z_MSC_GDPS_WindSpeed_IsbL-0275_LatLon0.15_PT090H.grib2 2026-04-22 04:33 1.1M
20260422T00Z_MSC_GDPS_WindSpeed_IsbL-0300_LatLon0.15_PT090H.grib2 2026-04-22 04:33 1.1M
20260422T00Z_MSC_GDPS_WindSpeed_IsbL-0350_LatLon0.15_PT090H.grib2 2026-04-22 04:33 1.1M
20260422T00Z_MSC_GDPS_WindSpeed_IsbL-0400_LatLon0.15_PT090H.grib2 2026-04-22 04:33 1.1M
20260422T00Z_MSC_GDPS_WindSpeed_IsbL-0450_LatLon0.15_PT090H.grib2 2026-04-22 04:33 1.1M
20260422T00Z_MSC_GDPS_WindSpeed_IsbL-0500_LatLon0.15_PT090H.grib2 2026-04-22 04:33 1.1M
20260422T00Z_MSC_GDPS_WindSpeed_IsbL-0550_LatLon0.15_PT090H.grib2 2026-04-22 04:33 1.1M
20260422T00Z_MSC_GDPS_WindSpeed_IsbL-0600_LatLon0.15_PT090H.grib2 2026-04-22 04:33 1.1M
20260422T00Z_MSC_GDPS_WindSpeed_IsbL-0650_LatLon0.15_PT090H.grib2 2026-04-22 04:33 1.2M
20260422T00Z_MSC_GDPS_WindSpeed_IsbL-0700_LatLon0.15_PT090H.grib2 2026-04-22 04:33 1.2M
20260422T00Z_MSC_GDPS_WindSpeed_IsbL-0750_LatLon0.15_PT090H.grib2 2026-04-22 04:33 1.6M
20260422T00Z_MSC_GDPS_WindSpeed_IsbL-0800_LatLon0.15_PT090H.grib2 2026-04-22 04:33 1.7M
20260422T00Z_MSC_GDPS_WindSpeed_IsbL-0850_LatLon0.15_PT090H.grib2 2026-04-22 04:33 1.8M
20260422T00Z_MSC_GDPS_WindSpeed_IsbL-0875_LatLon0.15_PT090H.grib2 2026-04-22 04:33 1.8M
20260422T00Z_MSC_GDPS_WindSpeed_IsbL-0900_LatLon0.15_PT090H.grib2 2026-04-22 04:33 1.8M
20260422T00Z_MSC_GDPS_WindSpeed_IsbL-0925_LatLon0.15_PT090H.grib2 2026-04-22 04:33 1.8M
20260422T00Z_MSC_GDPS_WindSpeed_IsbL-0950_LatLon0.15_PT090H.grib2 2026-04-22 04:33 1.9M
20260422T00Z_MSC_GDPS_WindSpeed_IsbL-0970_LatLon0.15_PT090H.grib2 2026-04-22 04:33 1.9M
20260422T00Z_MSC_GDPS_WindSpeed_IsbL-0985_LatLon0.15_PT090H.grib2 2026-04-22 04:33 1.9M
20260422T00Z_MSC_GDPS_WindSpeed_IsbL-1000_LatLon0.15_PT090H.grib2 2026-04-22 04:33 1.9M
20260422T00Z_MSC_GDPS_WindSpeed_IsbL-1015_LatLon0.15_PT090H.grib2 2026-04-22 04:33 1.8M
20260422T00Z_MSC_GDPS_WindU_AGL-10m_LatLon0.15_PT090H.grib2 2026-04-22 04:33 1.3M
20260422T00Z_MSC_GDPS_WindU_AGL-120m_LatLon0.15_PT090H.grib2 2026-04-22 04:33 1.0M
20260422T00Z_MSC_GDPS_WindU_AGL-40m_LatLon0.15_PT090H.grib2 2026-04-22 04:33 1.0M
20260422T00Z_MSC_GDPS_WindU_AGL-80m_LatLon0.15_PT090H.grib2 2026-04-22 04:33 1.0M
20260422T00Z_MSC_GDPS_WindU_IsbL-0001_LatLon0.15_PT090H.grib2 2026-04-22 04:33 642K
20260422T00Z_MSC_GDPS_WindU_IsbL-0005_LatLon0.15_PT090H.grib2 2026-04-22 04:33 687K
20260422T00Z_MSC_GDPS_WindU_IsbL-0010_LatLon0.15_PT090H.grib2 2026-04-22 04:33 698K
20260422T00Z_MSC_GDPS_WindU_IsbL-0020_LatLon0.15_PT090H.grib2 2026-04-22 04:33 732K
20260422T00Z_MSC_GDPS_WindU_IsbL-0030_LatLon0.15_PT090H.grib2 2026-04-22 04:33 733K
20260422T00Z_MSC_GDPS_WindU_IsbL-0050_LatLon0.15_PT090H.grib2 2026-04-22 04:33 698K
20260422T00Z_MSC_GDPS_WindU_IsbL-0100_LatLon0.15_PT090H.grib2 2026-04-22 04:33 909K
20260422T00Z_MSC_GDPS_WindU_IsbL-0150_LatLon0.15_PT090H.grib2 2026-04-22 04:33 1.0M
20260422T00Z_MSC_GDPS_WindU_IsbL-0175_LatLon0.15_PT090H.grib2 2026-04-22 04:33 1.0M
20260422T00Z_MSC_GDPS_WindU_IsbL-0200_LatLon0.15_PT090H.grib2 2026-04-22 04:33 1.0M
20260422T00Z_MSC_GDPS_WindU_IsbL-0225_LatLon0.15_PT090H.grib2 2026-04-22 04:33 851K
20260422T00Z_MSC_GDPS_WindU_IsbL-0250_LatLon0.15_PT090H.grib2 2026-04-22 04:33 852K
20260422T00Z_MSC_GDPS_WindU_IsbL-0275_LatLon0.15_PT090H.grib2 2026-04-22 04:33 878K
20260422T00Z_MSC_GDPS_WindU_IsbL-0300_LatLon0.15_PT090H.grib2 2026-04-22 04:33 870K
20260422T00Z_MSC_GDPS_WindU_IsbL-0350_LatLon0.15_PT090H.grib2 2026-04-22 04:33 889K
20260422T00Z_MSC_GDPS_WindU_IsbL-0400_LatLon0.15_PT090H.grib2 2026-04-22 04:33 890K
20260422T00Z_MSC_GDPS_WindU_IsbL-0450_LatLon0.15_PT090H.grib2 2026-04-22 04:33 892K
20260422T00Z_MSC_GDPS_WindU_IsbL-0500_LatLon0.15_PT090H.grib2 2026-04-22 04:33 1.1M
20260422T00Z_MSC_GDPS_WindU_IsbL-0550_LatLon0.15_PT090H.grib2 2026-04-22 04:33 1.1M
20260422T00Z_MSC_GDPS_WindU_IsbL-0600_LatLon0.15_PT090H.grib2 2026-04-22 04:33 1.2M
20260422T00Z_MSC_GDPS_WindU_IsbL-0650_LatLon0.15_PT090H.grib2 2026-04-22 04:33 1.2M
20260422T00Z_MSC_GDPS_WindU_IsbL-0700_LatLon0.15_PT090H.grib2 2026-04-22 04:33 1.2M
20260422T00Z_MSC_GDPS_WindU_IsbL-0750_LatLon0.15_PT090H.grib2 2026-04-22 04:33 1.3M
20260422T00Z_MSC_GDPS_WindU_IsbL-0800_LatLon0.15_PT090H.grib2 2026-04-22 04:33 1.4M
20260422T00Z_MSC_GDPS_WindU_IsbL-0850_LatLon0.15_PT090H.grib2 2026-04-22 04:33 1.4M
20260422T00Z_MSC_GDPS_WindU_IsbL-0875_LatLon0.15_PT090H.grib2 2026-04-22 04:33 1.5M
20260422T00Z_MSC_GDPS_WindU_IsbL-0900_LatLon0.15_PT090H.grib2 2026-04-22 04:33 1.5M
20260422T00Z_MSC_GDPS_WindU_IsbL-0925_LatLon0.15_PT090H.grib2 2026-04-22 04:33 1.5M
20260422T00Z_MSC_GDPS_WindU_IsbL-0950_LatLon0.15_PT090H.grib2 2026-04-22 04:33 1.4M
20260422T00Z_MSC_GDPS_WindU_IsbL-0970_LatLon0.15_PT090H.grib2 2026-04-22 04:33 1.4M
20260422T00Z_MSC_GDPS_WindU_IsbL-0985_LatLon0.15_PT090H.grib2 2026-04-22 04:33 1.4M
20260422T00Z_MSC_GDPS_WindU_IsbL-1000_LatLon0.15_PT090H.grib2 2026-04-22 04:33 1.4M
20260422T00Z_MSC_GDPS_WindU_IsbL-1015_LatLon0.15_PT090H.grib2 2026-04-22 04:33 1.4M
20260422T00Z_MSC_GDPS_WindV_AGL-10m_LatLon0.15_PT090H.grib2 2026-04-22 04:33 1.3M
20260422T00Z_MSC_GDPS_WindV_AGL-120m_LatLon0.15_PT090H.grib2 2026-04-22 04:33 1.0M
20260422T00Z_MSC_GDPS_WindV_AGL-40m_LatLon0.15_PT090H.grib2 2026-04-22 04:33 1.0M
20260422T00Z_MSC_GDPS_WindV_AGL-80m_LatLon0.15_PT090H.grib2 2026-04-22 04:33 1.0M
20260422T00Z_MSC_GDPS_WindV_IsbL-0001_LatLon0.15_PT090H.grib2 2026-04-22 04:33 765K
20260422T00Z_MSC_GDPS_WindV_IsbL-0005_LatLon0.15_PT090H.grib2 2026-04-22 04:33 778K
20260422T00Z_MSC_GDPS_WindV_IsbL-0010_LatLon0.15_PT090H.grib2 2026-04-22 04:33 878K
20260422T00Z_MSC_GDPS_WindV_IsbL-0020_LatLon0.15_PT090H.grib2 2026-04-22 04:33 845K
20260422T00Z_MSC_GDPS_WindV_IsbL-0030_LatLon0.15_PT090H.grib2 2026-04-22 04:33 845K
20260422T00Z_MSC_GDPS_WindV_IsbL-0050_LatLon0.15_PT090H.grib2 2026-04-22 04:33 904K
20260422T00Z_MSC_GDPS_WindV_IsbL-0100_LatLon0.15_PT090H.grib2 2026-04-22 04:33 1.0M
20260422T00Z_MSC_GDPS_WindV_IsbL-0150_LatLon0.15_PT090H.grib2 2026-04-22 04:33 1.0M
20260422T00Z_MSC_GDPS_WindV_IsbL-0175_LatLon0.15_PT090H.grib2 2026-04-22 04:33 1.0M
20260422T00Z_MSC_GDPS_WindV_IsbL-0200_LatLon0.15_PT090H.grib2 2026-04-22 04:33 839K
20260422T00Z_MSC_GDPS_WindV_IsbL-0225_LatLon0.15_PT090H.grib2 2026-04-22 04:33 848K
20260422T00Z_MSC_GDPS_WindV_IsbL-0250_LatLon0.15_PT090H.grib2 2026-04-22 04:33 847K
20260422T00Z_MSC_GDPS_WindV_IsbL-0275_LatLon0.15_PT090H.grib2 2026-04-22 04:33 873K
20260422T00Z_MSC_GDPS_WindV_IsbL-0300_LatLon0.15_PT090H.grib2 2026-04-22 04:33 921K
20260422T00Z_MSC_GDPS_WindV_IsbL-0350_LatLon0.15_PT090H.grib2 2026-04-22 04:33 937K
20260422T00Z_MSC_GDPS_WindV_IsbL-0400_LatLon0.15_PT090H.grib2 2026-04-22 04:33 878K
20260422T00Z_MSC_GDPS_WindV_IsbL-0450_LatLon0.15_PT090H.grib2 2026-04-22 04:33 878K
20260422T00Z_MSC_GDPS_WindV_IsbL-0500_LatLon0.15_PT090H.grib2 2026-04-22 04:33 1.1M
20260422T00Z_MSC_GDPS_WindV_IsbL-0550_LatLon0.15_PT090H.grib2 2026-04-22 04:33 1.1M
20260422T00Z_MSC_GDPS_WindV_IsbL-0600_LatLon0.15_PT090H.grib2 2026-04-22 04:33 1.1M
20260422T00Z_MSC_GDPS_WindV_IsbL-0650_LatLon0.15_PT090H.grib2 2026-04-22 04:33 1.2M
20260422T00Z_MSC_GDPS_WindV_IsbL-0700_LatLon0.15_PT090H.grib2 2026-04-22 04:33 1.2M
20260422T00Z_MSC_GDPS_WindV_IsbL-0750_LatLon0.15_PT090H.grib2 2026-04-22 04:33 1.3M
20260422T00Z_MSC_GDPS_WindV_IsbL-0800_LatLon0.15_PT090H.grib2 2026-04-22 04:33 1.3M
20260422T00Z_MSC_GDPS_WindV_IsbL-0850_LatLon0.15_PT090H.grib2 2026-04-22 04:33 1.4M
20260422T00Z_MSC_GDPS_WindV_IsbL-0875_LatLon0.15_PT090H.grib2 2026-04-22 04:33 1.4M
20260422T00Z_MSC_GDPS_WindV_IsbL-0900_LatLon0.15_PT090H.grib2 2026-04-22 04:33 1.5M
20260422T00Z_MSC_GDPS_WindV_IsbL-0925_LatLon0.15_PT090H.grib2 2026-04-22 04:33 1.5M
20260422T00Z_MSC_GDPS_WindV_IsbL-0950_LatLon0.15_PT090H.grib2 2026-04-22 04:33 1.4M
20260422T00Z_MSC_GDPS_WindV_IsbL-0970_LatLon0.15_PT090H.grib2 2026-04-22 04:33 1.4M
20260422T00Z_MSC_GDPS_WindV_IsbL-0985_LatLon0.15_PT090H.grib2 2026-04-22 04:33 1.4M
20260422T00Z_MSC_GDPS_WindV_IsbL-1000_LatLon0.15_PT090H.grib2 2026-04-22 04:33 1.4M
20260422T00Z_MSC_GDPS_WindV_IsbL-1015_LatLon0.15_PT090H.grib2 2026-04-22 04:33 1.4M